| time (UTC) | temp C | wind direction | speed KPH | gust KPH | rain 1hr cm | rain 24hr cm | rain mn cm | humidity % | barometer mb |
| 20260507012728 | 16 | 225 | 3.2 | 6.4 | 0.00 | 0.00 | 0.00 | 74 | 1018.4 |
| 20260507005714 | 16 | 135 | 3.2 | 6.4 | 0.00 | 0.00 | 0.00 | 74 | 1018.4 |
| 20260507002658 | 16 | 112 | 4.8 | 6.4 | 0.00 | 0.00 | 0.00 | 75 | 1018.4 |
| 20260506235643 | 16 | 202 | 3.2 | 6.4 | 0.00 | 0.00 | 0.00 | 75 | 1018.4 |
| 20260506232628 | 16 | 112 | 3.2 | 6.4 | 0.00 | 0.00 | 0.00 | 72 | 1018.5 |
| 20260506225613 | 16 | 135 | 4.8 | 8.0 | 0.00 | 0.00 | 0.00 | 71 | 1018.7 |
| 20260506222558 | 16 | 158 | 3.2 | 8.0 | 0.00 | 0.00 | 0.00 | 73 | 1018.8 |
| 20260506215543 | 16 | 158 | 4.8 | 8.0 | 0.00 | 0.00 | 0.00 | 72 | 1018.8 |
| 20260506212528 | 16 | 90 | 3.2 | 8.0 | 0.00 | 0.00 | 0.00 | 67 | 1018.8 |
| 20260506205513 | 16 | 135 | 4.8 | 8.0 | 0.00 | 0.00 | 0.00 | 67 | 1018.9 |
| 20260506202444 | 16 | 112 | 3.2 | 6.4 | 0.00 | 0.00 | 0.00 | 65 | 1018.9 |
| 20260506195443 | 15 | 112 | 4.8 | 6.4 | 0.00 | 0.00 | 0.00 | 70 | 1018.9 |
| 20260506192444 | 15 | 338 | 1.6 | 4.8 | 0.00 | 0.00 | 0.00 | 69 | 1018.9 |
| 20260506185433 | 15 | 68 | 3.2 | 6.4 | 0.00 | 0.00 | 0.00 | 70 | 1018.8 |
| 20260506182428 | 14 | 180 | 0.0 | 4.8 | 0.00 | 0.00 | 0.00 | 73 | 1018.5 |
| 20260506175421 | 14 | 22 | 3.2 | 6.4 | 0.00 | 0.00 | 0.00 | 70 | 1018.4 |
| 20260506172407 | 13 | 270 | 3.2 | 6.4 | 0.00 | 0.00 | 0.00 | 72 | 1018.5 |
| 20260506165352 | 13 | 338 | 4.8 | 6.4 | 0.00 | 0.00 | 0.00 | 77 | 1018.4 |
| 20260506162336 | 12 | 0 | 1.6 | 8.0 | 0.00 | 0.00 | 0.00 | 79 | 1018.2 |
| 20260506155313 | 12 | 292 | 4.8 | 8.0 | 0.00 | 0.00 | 0.00 | 81 | 1018.3 |
| 20260506152306 | 12 | 0 | 1.6 | 8.0 | 0.00 | 0.00 | 0.00 | 85 | 1017.8 |
| 20260506145251 | 12 | 338 | 4.8 | 8.0 | 0.00 | 0.00 | 0.00 | 87 | 1017.7 |
| 20260506142237 | 11 | 0 | 1.6 | 4.8 | 0.00 | 0.00 | 0.00 | 91 | 1017.4 |
| 20260506135236 | 11 | 22 | 0.0 | 3.2 | 0.00 | 0.00 | 0.00 | 95 | 1016.9 |
| 20260506132232 | 10 | 315 | 0.0 | 0.0 | 0.00 | 0.00 | 0.00 | 98 | 1016.7 |
| 20260506125216 | 10 | 270 | 0.0 | 0.0 | 0.00 | 0.00 | 0.00 | 99 | 1016.6 |
| 20260506122135 | 10 | 270 | 0.0 | 1.6 | 0.00 | 0.00 | 0.00 | 99 | 1016.4 |
| 20260506115120 | 11 | 22 | 0.0 | 3.2 | 0.00 | 0.00 | 0.00 | 99 | 1016.2 |
| 20260506112042 | 11 | 315 | 0.0 | 0.0 | 0.00 | 0.00 | 0.00 | 99 | 1015.7 |
| 20260506105011 | 10 | 270 | 0.0 | 0.0 | 0.00 | 0.00 | 0.00 | 99 | 1015.7 |
| 20260506102002 | 10 | 315 | 0.0 | 0.0 | 0.00 | 0.00 | 0.00 | 99 | 1015.6 |
| 20260506094942 | 10 | 270 | 0.0 | 0.0 | 0.00 | 0.00 | 0.00 | 99 | 1015.3 |
| 20260506091927 | 11 | 270 | 0.0 | 0.0 | 0.00 | 0.00 | 0.00 | 99 | 1015.1 |
| 20260506084911 | 11 | 338 | 0.0 | 0.0 | 0.00 | 0.00 | 0.00 | 99 | 1015.0 |
| 20260506081912 | 11 | 338 | 0.0 | 0.0 | 0.00 | 0.00 | 0.00 | 99 | 1014.7 |
| 20260506071742 | 12 | 22 | 0.0 | 0.0 | 0.00 | 0.00 | 0.00 | 96 | 1014.0 |
| 20260506061712 | 13 | 135 | 3.2 | 6.4 | 0.00 | 0.00 | 0.00 | 91 | 1013.5 |
| 20260506044548 | 15 | 158 | 3.2 | 3.2 | 0.00 | 0.00 | 0.00 | 84 | 1012.9 |
| 20260506041532 | -17 | 135 | 3.2 | 6.4 | 0.00 | 0.00 | 0.00 | 1012.6 | |
| 20260506034517 | 16 | 180 | 3.2 | 6.4 | 0.00 | 0.00 | 0.00 | 75 | 1012.3 |
| 20260506031502 | 17 | 135 | 3.2 | 4.8 | 0.00 | 0.00 | 0.00 | 69 | 1012.2 |
| 20260506024448 | 18 | 22 | 1.6 | 6.4 | 0.00 | 0.00 | 0.00 | 62 | 1012.0 |
| 20260506021432 | -17 | 202 | 3.2 | 3.2 | 0.00 | 0.00 | 0.00 | 1012.0 |